Probability
3 2 1 1 1 0 0 0 0 1 1 1 3 8 12 13 13 13 14 17 21 23 24 22 19 17 17 18 19 19 18 17 17 16 15 14 13 14 13 11 8 6 5 5
2 2 2 2 1 0 0 0 1 1 2 4 6 9 13 15 14 14 15 18 22 24 25 24 22 19 18 18 18 17 15 13 14 15 15 14 13 14 13 10 7 5 4 5
1 1 1 1 1 0 0 0 1 3 4 6 7 9 14 17 16 17 18 20 22 24 24 24 23 22 20 18 17 15 12 11 12 13 13 12 12 13 11 8 5 4 4 4
0 0 0 0 0 0 0 1 3 5 6 6 6 7 12 16 19 19 20 20 21 21 22 22 22 22 22 19 16 14 12 12 12 12 11 10 10 11 9 7 5 4 4 5
1 0 0 0 0 1 1 2 4 6 6 5 4 7 11 15 19 19 17 17 17 18 20 22 22 21 21 20 17 14 13 13 13 12 10 9 9 9 8 7 6 6 6 6
1 0 0 0 0 0 1 4 6 8 8 6 6 9 13 17 19 19 17 16 16 17 19 21 21 19 19 18 17 15 14 15 14 13 11 10 9 9 7 7 6 6 6 6
1 0 0 0 0 1 2 5 9 11 11 10 9 12 15 18 19 19 17 15 16 17 19 21 20 18 18 17 15 13 13 14 14 13 12 11 10 9 8 7 6 6 6 6
0 0 0 0 1 2 5 8 9 10 12 12 10 12 15 16 19 19 17 16 17 19 20 19 18 16 16 15 13 12 12 12 12 12 11 11 11 10 9 7 7 6 6 6
0 0 0 0 1 2 5 7 7 7 9 11 12 13 14 15 18 19 19 19 20 20 19 17 15 13 13 13 12 12 11 11 11 10 9 9 9 9 8 8 7 6 5 5
1 0 0 1 1 2 3 4 4 4 5 9 12 13 13 13 15 17 17 18 19 18 17 15 13 12 12 13 13 11 11 12 11 9 8 7 7 7 7 7 6 5 4 4
1 1 1 2 2 2 2 2 2 1 2 7 11 11 10 11 13 13 12 13 14 16 14 13 13 13 13 14 14 12 11 12 11 9 7 6 6 5 5 5 5 5 4 3
1 2 2 2 2 2 2 2 1 0 2 4 7 8 7 8 10 10 9 9 11 12 11 12 12 12 12 13 14 13 12 11 11 9 7 6 6 4 4 4 4 4 3 2
0 1 2 2 1 1 2 2 0 1 2 3 4 5 5 6 7 8 8 8 8 9 9 11 12 11 11 12 13 13 12 10 9 8 7 6 6 5 4 4 4 3 2 1
0 1 2 2 1 1 1 1 0 1 2 3 3 4 4 4 5 6 6 6 6 8 9 11 11 11 11 11 12 12 11 9 7 6 6 6 6 5 5 6 5 4 3 2
0 0 1 2 2 2 1 0 0 1 2 3 3 3 3 3 2 3 4 5 7 9 11 12 11 10 10 9 10 10 9 7 5 5 5 6 5 4 4 4 5 6 5 4
0 1 2 3 3 2 1 0 0 1 2 2 3 3 3 2 1 2 4 5 6 9 11 11 10 8 6 6 6 7 6 5 4 4 5 5 4 3 3 3 4 5 5 6
1 2 3 3 3 2 0 0 0 0 1 1 2 3 3 2 0 1 4 5 6 8 10 10 9 6 4 4 4 4 4 4 4 5 5 5 4 3 3 3 3 3 4 5
1 2 3 3 2 1 0 0 0 0 0 0 0 2 3 2 0 1 4 7 7 8 9 9 7 5 4 3 3 3 4 4 5 6 6 5 4 3 3 3 3 2 2 2
0 1 2 1 1 1 0 0 0 0 0 0 0 1 2 1 0 1 4 7 8 8 9 8 6 5 5 3 3 4 5 5 5 5 5 4 3 2 2 2 1 1 1 1
0 0 0 0 0 0 0 0 0 0 0 0 0 0 0 0 0 0 2 4 5 7 8 7 6 6 5 3 3 5 5 4 3 2 2 1 1 1 1 1 0 0 0 1
0 0 0 0 0 0 0 0 0 0 0 0 0 0 0 0 0 0 1 2 3 4 4 4 4 5 4 2 2 4 4 3 1 0 0 0 0 0 0 0 0 0 0 0
0 0 0 0 0 0 0 0 0 0 0 0 0 0 0 0 0 0 1 2 3 2 1 1 1 2 1 1 1 1 1 1 0 0 0 0 0 0 0 0 0 0 0 0
0 0 0 1 1 0 0 0 0 0 0 0 0 0 0 0 0 0 1 2 2 1 0 0 0 0 0 0 0 0 0 0 0 0 0 0 0 0 0 0 0 0 0 0
0 0 0 1 1 1 0 0 0 0 0 0 0 0 0 0 0 0 0 1 1 0 0 0 0 0 0 0 0 0 0 0 0 0 0 0 0 0 0 0 0 0 0 0
0 0 0 0 1 1 0 0 0 0 0 0 0 0 0 0 0 0 0 0 0 0 0 0 0 0 0 0 0 0 0 0 0 0 0 0 0 0 0 0 0 0 0 0
0 0 0 0 0 0 0 0 0 0 0 0 0 0 0 0 0 0 0 1 1 0 0 0 0 0 0 0 0 0 0 0 0 0 0 0 0 1 1 0 0 0 0 0
0 0 0 0 0 0 0 0 0 0 0 0 0 0 0 0 0 0 1 2 2 1 0 0 0 0 0 0 0 0 0 0 0 0 0 0 1 2 2 1 0 0 0 0
Wind_Speed
9 7 8 10 11 12 13 13 12 9 7 4 2 3 2 2 2 2 3 3 3 3 3 4 4 5 5 5 5 5 6 6 6 5 5 4 4 4 4 4 4 3 3 3
8 8 9 10 11 12 12 12 11 10 8 3 1 2 2 2 3 3 3 3 3 3 4 3 3 4 4 5 5 5 6 6 5 5 5 5 4 4 4 4 3 3 3 3
9 8 9 11 10 10 10 9 9 10 5 2 2 3 3 3 3 3 3 3 3 2 3 3 3 4 4 5 5 5 5 5 5 5 5 5 4 4 4 3 3 3 3 3
7 8 12 3 1 5 7 6 5 6 5 4 3 3 3 3 3 3 2 2 2 2 2 2 2 3 4 5 6 6 5 5 5 5 4 4 4 3 3 3 3 3 2 2
7 9 7 4 3 4 6 5 2 4 4 3 1 3 3 2 2 2 2 2 2 2 2 3 2 3 4 4 5 5 5 4 4 4 4 4 3 3 3 3 3 2 2 2
8 9 7 2 1 2 5 5 1 2 3 2 3 4 1 2 1 1 2 2 3 3 3 3 3 3 4 4 3 3 3 4 4 4 4 3 3 2 2 2 3 2 2 2
10 9 2 3 2 3 6 1 4 2 1 2 2 3 2 1 1 2 3 3 3 4 3 3 3 3 3 3 2 2 2 2 3 3 4 4 3 3 3 3 2 2 2 2
7 9 3 3 0 1 3 4 3 3 2 1 1 2 1 1 2 2 3 3 3 3 3 3 3 3 3 2 2 2 2 2 2 3 3 3 3 3 3 3 3 3 2 2
3 1 4 1 1 2 2 2 3 3 3 2 1 1 0 0 1 3 3 3 3 3 4 3 3 2 2 2 2 2 2 2 2 3 2 3 3 3 3 3 2 2 2 2
3 2 1 1 1 2 3 3 3 3 3 2 2 2 1 1 1 2 3 3 3 4 3 3 3 2 2 3 2 2 2 2 2 3 3 3 2 3 2 2 2 2 2 2
5 4 3 2 2 3 3 3 3 3 3 3 2 2 2 1 2 2 2 3 3 3 3 3 3 2 3 3 2 1 2 2 2 2 2 2 2 1 2 1 0 2 2 2
5 4 4 4 3 4 4 3 3 3 3 3 3 3 2 1 0 1 2 2 3 3 3 3 3 3 3 3 3 2 2 2 2 2 2 2 3 3 2 1 2 1 1 3
5 5 5 5 5 5 4 3 3 3 3 3 3 2 2 0 0 1 2 2 3 3 3 3 3 3 3 3 3 3 2 2 2 2 2 3 3 3 3 3 3 3 3 2
3 3 4 4 4 3 3 3 2 2 2 2 2 2 1 0 0 1 2 2 2 3 3 3 3 3 3 3 3 3 3 2 2 2 2 3 3 3 3 3 3 3 4 5
3 3 3 3 2 2 2 2 1 1 2 2 2 2 1 0 0 0 1 2 2 2 2 3 3 2 3 3 4 4 3 2 2 2 2 3 3 3 2 3 2 2 2 4
3 2 2 2 1 1 1 1 1 1 2 2 2 2 1 0 0 0 1 2 2 2 1 1 1 2 2 2 3 3 3 2 3 3 3 3 3 3 3 2 2 2 2 2
3 3 2 1 1 0 0 1 1 1 1 2 2 2 1 0 1 1 1 1 1 1 1 1 0 1 1 2 3 2 2 2 4 4 3 3 2 2 2 2 2 2 2 1
1 1 1 0 0 0 1 1 2 2 2 2 2 1 1 1 1 1 1 1 1 1 1 0 0 1 2 2 3 3 2 3 3 3 2 1 2 2 2 2 2 2 2 3
3 3 2 2 1 1 1 2 2 2 2 2 2 2 2 1 1 1 1 1 0 0 1 2 1 2 2 2 3 3 3 3 2 2 2 2 3 3 2 2 2 2 2 2
4 4 3 2 2 2 2 2 2 2 2 2 2 2 2 2 2 2 2 1 2 2 2 2 2 2 2 2 3 3 3 3 2 2 2 3 3 3 2 2 3 3 2 2
3 3 3 2 2 2 2 2 2 2 2 2 2 2 2 3 3 2 2 2 2 3 2 2 2 2 2 2 3 3 3 3 3 2 3 3 3 3 2 2 3 3 3 3
2 2 2 2 2 2 2 2 2 2 2 2 2 2 2 2 2 2 2 2 3 2 2 2 2 2 3 3 3 3 3 3 2 2 3 3 3 3 3 3 3 3 3 3
1 1 2 2 2 2 2 2 1 1 1 2 2 2 3 3 3 3 2 2 2 2 3 3 3 2 3 4 3 3 3 3 2 2 3 3 3 3 3 3 3 3 3 3
1 1 1 1 1 1 2 2 2 1 1 2 2 2 3 2 2 2 2 2 2 3 3 2 2 2 4 4 3 3 2 2 2 2 2 3 3 3 3 3 3 3 3 4
1 1 1 1 1 1 1 1 1 1 2 1 2 2 2 2 2 2 2 3 2 2 3 1 1 3 4 3 3 3 2 2 2 3 2 3 3 3 3 3 3 3 3 3
0 0 1 1 2 2 2 2 2 1 2 1 2 2 1 1 2 2 2 2 2 2 3 2 2 2 2 2 2 2 2 1 1 3 3 3 3 3 3 3 4 3 3 3
0 0 0 1 1 1 2 2 2 2 2 2 2 2 2 1 1 2 2 2 2 2 2 2 2 2 2 2 2 2 2 2 2 3 3 3 3 3 3 4 3 3 3 3
Wind_Direction
259 261 247 238 230 227 232 246 256 254 252 266 248 229 226 210 167 149 138 137 141 146 154 161 164 169 166 158 158 159 161 163 164 166 169 173 180 182 184 193 202 207 214 221
243 239 238 237 234 231 235 242 251 255 256 277 302 237 222 197 176 162 154 152 145 143 149 156 164 169 164 161 160 163 165 167 166 170 172 173 178 185 188 193 199 201 212 215
239 223 233 234 232 233 231 236 246 255 266 257 244 237 229 206 189 180 172 162 153 147 146 155 165 169 173 170 165 166 170 171 170 175 179 179 182 184 185 189 196 205 209 204
245 222 231 215 203 243 236 236 256 264 272 269 267 247 223 208 194 178 168 159 153 145 136 132 153 161 160 164 166 168 169 171 172 176 178 175 178 181 181 183 193 198 196 192
243 234 228 188 195 231 237 228 254 265 269 263 265 220 180 150 155 153 150 144 142 141 130 131 143 148 150 155 161 166 164 168 170 171 170 173 176 178 179 182 187 192 184 197
243 244 239 152 108 265 243 223 49 286 274 243 230 234 132 86 85 125 137 133 129 136 129 124 126 137 148 150 151 164 171 172 167 168 169 170 169 172 173 183 182 189 173 206
242 244 228 47 18 237 234 52 29 351 293 256 256 329 40 92 146 142 138 132 130 135 131 120 127 137 143 142 144 146 156 167 164 169 173 164 156 160 173 182 174 191 184 204
238 238 216 49 166 276 10 26 6 3 6 345 356 29 76 130 148 145 142 135 133 134 129 126 135 141 132 115 98 111 129 145 154 166 177 151 154 162 175 180 180 187 193 212
277 318 53 42 24 23 12 351 356 351 356 352 331 319 310 169 157 147 149 144 143 145 137 136 143 145 131 109 95 96 121 137 143 156 160 156 168 172 178 189 201 195 203 212
254 244 293 316 355 354 356 345 339 337 331 324 311 311 307 268 162 160 155 155 156 155 151 145 150 150 128 123 131 138 144 152 156 167 167 159 189 188 185 193 209 218 227 228
246 254 266 268 315 332 341 340 334 342 348 342 319 311 306 267 185 174 163 161 165 167 161 151 153 151 146 144 150 159 157 162 167 170 162 166 179 191 208 184 276 264 264 253
262 264 273 286 309 318 318 321 328 330 332 329 321 304 289 261 171 163 158 161 163 164 160 154 154 150 156 166 168 181 183 183 187 181 168 184 179 162 86 49 117 161 294 300
280 285 285 284 291 300 298 299 305 302 303 309 317 317 309 315 196 144 161 170 169 173 168 167 166 163 173 183 184 194 202 204 222 209 191 199 199 193 181 166 158 168 183 197
281 271 266 266 271 280 287 295 287 285 306 322 324 319 305 220 200 189 186 173 173 177 177 175 173 175 185 184 191 201 210 207 226 227 224 215 208 212 214 206 185 177 173 183
259 250 251 261 266 272 274 280 274 324 353 341 329 323 312 162 168 226 176 157 155 172 178 174 174 180 195 196 201 207 216 221 228 229 231 224 220 220 221 223 214 198 178 162
254 227 217 225 221 251 267 279 317 345 342 337 338 342 323 267 124 121 159 167 180 184 179 175 184 189 206 211 213 213 217 223 238 238 235 234 230 225 222 223 227 216 207 191
217 195 194 201 205 191 241 334 345 341 341 339 338 343 13 97 92 65 104 147 140 138 144 166 219 214 211 222 238 236 228 215 222 231 230 234 244 244 238 233 230 220 213 161
138 145 154 154 186 98 61 30 16 4 343 335 337 336 2 25 14 15 26 86 98 88 80 25 307 249 220 220 251 253 238 236 237 238 243 247 248 247 248 241 235 242 231 173
78 74 69 68 65 40 30 27 11 3 351 355 6 6 17 27 15 3 10 52 50 11 7 7 344 262 237 235 263 245 243 239 238 242 244 236 238 240 247 249 242 238 245 230
72 61 54 57 60 58 32 17 11 7 358 7 14 22 21 11 356 355 355 349 331 334 338 339 308 285 261 237 265 256 254 252 250 248 247 245 246 244 244 245 246 250 251 246
64 51 42 42 38 26 17 11 12 19 24 25 19 14 9 1 349 342 332 334 341 342 321 292 273 279 284 311 272 265 251 246 248 257 264 260 255 251 249 254 257 253 250 250
71 62 40 41 38 32 25 16 10 15 19 15 4 358 356 358 342 326 321 319 323 336 295 284 290 345 331 302 272 269 258 251 251 251 257 261 263 259 253 250 251 251 248 247
64 60 51 46 47 39 31 21 19 11 2 354 346 340 337 334 324 315 318 330 317 334 307 315 341 342 296 274 269 265 260 255 263 261 254 251 252 257 258 256 256 256 256 254
57 48 37 28 34 31 17 5 358 352 342 331 330 323 312 308 315 325 330 345 325 313 307 336 332 288 267 268 272 271 270 263 261 266 264 260 255 252 255 257 257 258 258 261
68 37 24 8 351 351 350 324 304 287 289 313 320 320 309 318 324 331 327 325 329 301 295 306 269 263 264 282 285 288 293 302 304 298 288 283 276 270 270 270 266 261 260 260
19 326 10 345 339 328 323 311 306 310 310 315 323 327 319 311 304 298 295 306 320 305 295 295 279 256 269 280 288 296 292 284 276 275 279 280 283 281 277 277 273 265 263 263
249 295 306 307 315 314 313 307 304 304 303 300 311 314 307 303 298 302 307 307 302 304 309 306 299 289 286 292 297 289 283 282 282 281 282 278 273 272 270 267 265 261 262 265